Regional Weather Roundup
Issued by NWS

Home | Current Version | Previous Version | Text Only | Print | Product List | Glossary Off
Versions: 1 2 3 4 5 6 7 8 9 10 11 12 13 14 15 16 17 18 19 20 21 22 23 24 25 26 27 28 29 30 31 32 33 34 35 36 37 38 39 40 41 42 43 44 45 46 47 48 49 50

000
ASUS43 KLOT 202009
RWRIL

ILLINOIS REGIONAL WEATHER ROUNDUP
NATIONAL WEATHER SERVICE CHICAGO/ROMEOVILLE IL
300 PM CDT THU JUL 20 2017

NOTE: "FAIR" INDICATES FEW OR NO CLOUDS BELOW 12,000 FEET WITH NO
SIGNIFICANT WEATHER AND/OR OBSTRUCTIONS TO VISIBILITY.

* THESE STATIONS ARE NOT UNDER NWS QUALITY CONTROL. THEY ALSO MAY NOT
  REPORT WEATHER SUCH AS PRECIPITATION OR FOG.

ILZ001-002-007-009-015-016-024-202100-
NORTHWEST ILLINOIS

CITY           SKY/WX    TMP DP  RH WIND       PRES   REMARKS
MOLINE         MOSUNNY   93  77  59 NW6       29.94F HX 107
STERLING*      MOSUNNY   88  78  72 W6        29.97R HX 101
SAVANNA*       SUNNY     86  76  72 NW5       29.96S HX  95
$$

ILZ003-004-008-010-011-017-018-202100-
NORTH CENTRAL ILLINOIS

CITY           SKY/WX    TMP DP  RH WIND       PRES   REMARKS
ROCKFORD       CLOUDY    85  75  72 NW8       29.98R HX  93
FREEPORT*      CLOUDY    82  75  81 NW7       29.99S HX  88
ROCHELLE*      CLOUDY    82  76  82 W8        29.98S HX  90
DE KALB*       CLOUDY    81  75  82 W10       29.99R HX  87
PERU*          CLOUDY    86  76  73 W12       29.97S HX  96
$$

ILZ005-006-012>014-019>023-202100-
NORTHEAST ILLINOIS

CITY           SKY/WX    TMP DP  RH WIND       PRES   REMARKS
CHICAGO-OHARE  CLOUDY    86  73  65 W8        29.95S HX  93
CHICAGO-MIDWAY PTSUNNY   88  74  63 W14       29.94S HX  96
AURORA         CLOUDY    84  77  79 SW9       29.97R HX  94
LANSING*       MOSUNNY   89  73  60 W9G16     29.95S HX  96
JOLIET*        CLOUDY    85  77  76 W6        29.96S HX  96
WAUKEGAN       PTSUNNY   79  73  82 NE9       29.96R HX  82
DUPAGE AIRPORT CLOUDY    84  76  76 W8        29.96R HX  93
WHEELING       CLOUDY    87  76  69 NW7       29.96S HX  97
MORRIS*        CLOUDY    84  76  78 W9        29.95S HX  92
ROMEOVILLE*    CLOUDY    83  74  73 W12       29.96S HX  90
NORTHERLY ISL    N/A     78  70  76 N1          N/A  HX  80
$$

LMZ740>746-202100-
SOUTHERN LAKE MICHIGAN

STATION/POSITION SKY/WX   TEMP    WIND        PRES    VSBY  WAVE
                          AIR SEA DIR/SP/G                  HT/PER
                          (F)     (DEG/KT/KT) (MB)    (MI)  (FT/S)
SOUTHERN BUOY              71 71   90/  4/  4 1014.7          2/ 5
WILMETTE HARBOR            74 72   60/  8/ 10   N/A           2/ 2
HARRISON CRIB              75      40/ 16/ 16   N/A
BURNHAM HARBOR             76                   N/A
CALUMET HARBOR             89     270/  5/ 11 1013.5R
BURNS HARBOR               81     280/ 10/ 12 1014.6S
MICHIGAN CITY              80     340/  5/  6   N/A
MICHIGAN CITY 6N           77 76   30/  6/ 14   N/A           1/ 3
ST. JOSEPH                 75 74   10/  6/  8 1014.8          2/ 4
$$

ILZ025>027-034>036-040-047-049-050-058-095>099-202100-
WEST-CENTRAL ILLINOIS

CITY           SKY/WX    TMP DP  RH WIND       PRES   REMARKS
QUINCY         SUNNY     97  75  49 SW15      29.98S HX 109
GALESBURG*     SUNNY     91  78  64 SW9       29.97S HX 105
MACOMB*        SUNNY     93  78  61 SW7       29.98S HX 108
JACKSONVILLE*  SUNNY     95  75  52 SW10G16   29.98F HX 106
PITTSFIELD*    SUNNY     96  77  54 SW12G17   30.01S HX 111
$$

ILZ028>032-037-038-041>044-048-051>054-059>061-202100-
CENTRAL ILLINOIS

CITY           SKY/WX    TMP DP  RH WIND       PRES   REMARKS
PONTIAC        MOSUNNY   90  80  74 W13       29.97S HX 107
BLOOMINGTON    MOSUNNY   93  77  59 SW21      29.98S HX 107
DECATUR        MOSUNNY   93  73  52 SW17      29.99F HX 102
PEORIA         MOSUNNY   93  79  63 SW12      29.95F HX 110
LACON*         PTSUNNY   91  77  64 SW8       29.95S HX 104
LINCOLN*       MOSUNNY   94  78  59 SW9G17    29.97S HX 110
SPRINGFIELD    SUNNY     95  78  58 SW10      29.98F HX 111
TAYLORVILLE    CLOUDY    93  74  54 SW13      30.00F HX 102
$$

ILZ033-039-045-046-055>057-062-063-202100-
EAST-CENTRAL ILLINOIS

CITY           SKY/WX    TMP DP  RH WIND       PRES   REMARKS
RANTOUL*       CLOUDY    91  78  65 SW14G21   29.98S HX 105
MATTOON        MOSUNNY   92  76  59 SW9G18    30.00F HX 104
PARIS*         PTSUNNY   89  77  67 SW12      30.01F HX 102
$$

ILZ079-100>102-202100-
SOUTHWEST ILLINOIS

CITY           SKY/WX    TMP DP  RH WIND       PRES   REMARKS
ALTON          MOSUNNY   97  75  49 SW7       30.02F HX 109
BELLEVILLE     SUNNY     97  71  43 SW7       30.03F HX 104
CAHOKIA*       SUNNY     99  67  35 SW5       30.01F HX 103
SPARTA*        MOSUNNY   94  73  49 SE7       30.05S HX 103
$$

ILZ064>066-069>071-074>076-080>082-084>086-088>090-092>094-202100-
SOUTH-CENTRAL ILLINOIS

CITY           SKY/WX    TMP DP  RH WIND       PRES   REMARKS
CARBONDALE     SUNNY     93  74  53 SW8       30.04F HX 103
CAIRO*         MOSUNNY   92  75  58 S6        30.06S HX 102
EFFINGHAM*     PTSUNNY   94  73  50 S9        30.04S HX 104
MARION         MOSUNNY   95  72  46 SW8       30.06F HX 103
MT. VERNON     PTSUNNY   96  76  52 SE8       30.04S HX 109
CENTRALIA*     MOSUNNY   96  73  47 W5        30.02F HX 106
SALEM*         MOSUNNY   96  70  42 S7        30.02F HX 103
METROPOLIS*    MOSUNNY   94  74  53 SW5       30.07S HX 104
$$

ILZ067-068-072-073-078-083-087-091-202100-
SOUTHEAST ILLINOIS

CITY           SKY/WX    TMP DP  RH WIND       PRES   REMARKS
LAWRENCEVILLE  MOSUNNY   94  76  55 S9        30.02F HX 106
FLORA*         CLOUDY    95  74  50 SW9       30.03S HX 106
FAIRFIELD*     MOSUNNY   93  76  57 SW6       30.03S HX 105
HARRISBURG*    CLOUDY    92  75  58 S6        30.04F HX 103
ROBINSON*      CLOUDY    91  76  60 SW7       30.02F HX 102
CARMI*         MOSUNNY   91  77  64 S7        30.03F HX 104
$$

ABBREVIATIONS USED IN REMARKS
   TC - TEMPERATURE IN CELSIUS
  WCI - WIND CHILL INDEX
   HX - HEAT INDEX
  VSB - VISIBILITY
$$





USA.gov is the U.S. government's official web portal to all federal, state and local government web resources and services.